Regional Weather Roundup
Issued by NWS

Home | Current Version | Previous Version | Graphics & Text | Print | Product List | Glossary On
Versions: 1 2 3 4 5 6 7 8 9 10 11 12 13 14 15 16 17 18 19 20 21 22 23 24 25 26 27 28 29 30 31 32 33 34 35 36 37 38 39 40 41 42 43 44 45 46 47 48 49 50
000
ASUS43 KDMX 280807
RWRIA

WEATHER ROUNDUP FOR IOWA
NATIONAL WEATHER SERVICE DES MOINES IA
300 AM CDT MON JUL 28 2014

NOTE: "FAIR" INDICATES FEW OR NO CLOUDS BELOW 12,000 FEET WITH NO
SIGNIFICANT WEATHER AND/OR OBSTRUCTIONS TO VISIBILITY.

* - THESE STATIONS ARE NOT NWS STATIONS...THUS NOT UNDER NWS
QUALITY CONTROL.  THEY ALSO DO NOT REPORT WEATHER SUCH
AS PRECIPITATION OR FOG.

IAZ001>003-012>014-020>022-031>034-043>046-280900-
   NORTHWEST IOWA

CITY           SKY/WX    TMP DP  RH WIND       PRES   REMARKS
CARROLL *      CLEAR     59  57  94 NW10      30.17S
CHEROKEE *     CLEAR     57  57 100 N5        30.20S
DENISON *      CLEAR     57  57 100 N8        30.17F
LE MARS *      CLEAR     57  55  94 NW3       30.22S
ORANGE CITY *  CLEAR     57  54  88 NW7       30.22S
SHELDON *      PTCLDY    55  54  94 NW5       30.20S
SIOUX CITY     CLEAR     59  56  89 NW6       30.22S
SPENCER        CLEAR     56  54  93 W6        30.19R
STORM LAKE *   CLEAR     55  55 100 NW9       30.20S
$$

IAZ055>058-069>071-079>083-090>094-280900-
   SOUTHWEST IOWA

CITY           SKY/WX    TMP DP  RH WIND       PRES   REMARKS
ATLANTIC *     CLEAR     59  55  88 N5        30.17S
AUDUBON *      CLEAR     61  57  88 NW7       30.18S
CLARINDA *     CLEAR     59  57  94 VRB5      30.19R
COUNCIL BLFS *   N/A     61  59  94 N7        30.19S
CRESTON *      CLEAR     57  55  94 W7        30.16S
HARLAN  *      CLEAR     57  55  94 NW6       30.22R
LAMONI         CLEAR     59  56  89 NW8       30.14R
RED OAK *      CLEAR     61  57  88 N10       30.18S
SHENANDOAH *   CLEAR     61  57  88 N7        30.19S
$$

IAZ047>049-059>061-072>074-084-280900-
   CENTRAL IOWA

CITY           SKY/WX    TMP DP  RH WIND       PRES   REMARKS
AMES           CLEAR     62  59  90 N10       30.13R
ANKENY *       CLEAR     63  59  88 NW9       30.12S
CHARITON *     CLEAR     63  57  82 NW10      30.11S
DES MOINES     PTCLDY    63  57  81 N9        30.12R
GRINNELL*      CLEAR     61  59  94 NW6       30.10R
KNOXVILLE *    PTCLDY    64  59  82 NW13G20   30.09R
MARSHALLTOWN   CLEAR     61  59  93 N10       30.10R
PELLA *        CLEAR     61  59  94 NW9       30.11R
PERRY *          N/A     59  57  94 NW6       30.15S
$$

IAZ004>006-015-016-023>025-035-036-280900-
   NORTH CENTRAL IOWA

CITY           SKY/WX    TMP DP  RH WIND       PRES   REMARKS
ALGONA *       CLOUDY    63  61  94 N7        30.16S
CLARION *      CLEAR     61  61 100 N5        30.14S
ESTHERVILLE    MOCLDY    58  57  97 N7        30.17S
FORT DODGE *   MOCLDY    61  55  82 N5        30.16S
MASON CITY     CLOUDY    61  57  87 N5        30.16R
FOREST CITY *  CLOUDY    61  59  94 N5        30.15R
IOWA FALLS *     N/A     61  57  88 N6        30.14R
$$

IAZ007>011-017>019-026>030-037>042-050>054-066-280900-
   NORTHEAST IOWA

CITY           SKY/WX    TMP DP  RH WIND       PRES   REMARKS
CEDAR RAPIDS   CLEAR     62  58  86 N10       30.06R
CHARLES CITY * CLOUDY    59  57  94 N8        30.13S
CLINTON *      CLOUDY    63  59  88 N6        30.05R
DECORAH *      PTCLDY    57  54  88 N7        30.11R
DUBUQUE        PTCLDY    61  54  77 N14G21    30.06R
MONTICELLO *   PTCLDY    63  61  94 N8        30.05R
OELWEIN *      CLEAR     59  55  88 N10       30.10S
WATERLOO       CLEAR     58  55  90 N7        30.09R
$$

IAZ064-065-067-068-078-280900-
   EAST CENTRAL IOWA

CITY           SKY/WX    TMP DP  RH WIND       PRES   REMARKS
DAVENPORT      CLOUDY    63  60  90 N7        30.03R
IOWA CITY      MOCLDY    66  60  81 N9        30.06R
MT. PLEASANT * CLEAR     64  59  82 NW8       30.04S
MUSCATINE *    CLEAR     63  61  94 N6        30.03R
QUAD CITIES    MOCLDY    66  59  78 N6        30.02R
$$

IAZ062-063-075>077-085>089-095>099-280900-
   SOUTHEAST IOWA

CITY           SKY/WX    TMP DP  RH WIND       PRES   REMARKS
BURLINGTON     CLEAR     64  61  90 NW9       30.02S
FAIRFIELD *    CLEAR     63  59  88 NW9       30.06S
FORT MADISON * CLEAR     63  63 100 NW7       30.04S
KEOKUK *       CLEAR     64  61  88 NW8       30.03S
OSKALOOSA *      N/A     63  61  94 N10       30.08R
CENTERVILLE *  CLEAR     63  59  88 NW9       30.11R
OTTUMWA        CLEAR     62  59  90 NW10      30.07R
WASHINGTON *   PTCLDY    63  61  94 NW8       30.06R
$$

ABBREVIATIONS USED IN REMARKS
   TC - TEMPERATURES IN CELSIUS
  WCI - WIND CHILL INDEX
   HX - HEAT INDEX
  VSB - VISIBILITY
$$




USA.gov is the U.S. government's official web portal to all federal, state and local government web resources and services.